Weather History for Albertville, AL

Change the Weather History Date:

Wednesday, November 7, 2012

  Actual Average (KGAD) Record (KGAD)
Temperature  
Mean Temperature 46 °F -  
Max Temperature 51 °F 64 °F 81 °F (1942)
Min Temperature 37 °F 41 °F 24 °F (1952)
Degree Days  
Heating Degree Days 19    
Moisture  
Dew Point 42 °F    
Average Humidity 92    
Maximum Humidity 100    
Minimum Humidity 58    
Precipitation  
Precipitation 0.08 in - - ()
Sea Level Pressure  
Sea Level Pressure 29.98 in    
Wind  
Wind Speed 7 mph (NW)    
Max Wind Speed 14 mph    
Max Gust Speed 21 mph    
Visibility 8 miles    
Events Rain    
Averages and records for this station are not official NWS values.
T = Trace of Precipitation, MM = Missing Value Source: NWS Daily Summary

Daily Weather History Graph

Daily Weather History Graph

Search for Another Location

Airport:

Trip Planner

Search our weather history database for the weather conditions in past years. The results will help you decide how hot, cold, wet, or windy it might be!

Date:

Astronomy

Nov. 07, 2012 Rise Set
Actual Time 6:10 AM CST 4:46 PM CST
Civil Twilight 5:44 AM CST 5:12 PM CST
Nautical Twilight 5:14 AM CST 5:42 PM CST
Astronomical Twilight 4:45 AM CST 6:11 PM CST
Moon No Moon Rise 12:38 PM CST (11/7)
Length of Visible Light 11h 27m
Length of Day
10h 35m
Last Quarter, 43% of the Moon is Illuminated
Nov 7
Last Quarter
Nov 13
New
Nov 20
First Quarter
Nov 28
Full
Dec 6
Last Quarter

Hourly Weather History & Observations

Time (CST) Temp. Windchill Dew Point Humidity Pressure Visibility Wind Dir Wind Speed Gust Speed Precip Events Conditions
12:15 AM 46.4 °F 43.5 °F 46.4 °F 100% 29.94 in 4.0 mi WSW 5.8 mph - 0.01 in Rain Light Rain
12:55 AM 46.4 °F 43.5 °F 46.4 °F 100% 29.93 in 4.0 mi WSW 5.8 mph - 0.02 in   Mist
1:15 AM 46.4 °F 44.3 °F 46.4 °F 100% 29.93 in 3.0 mi WSW 4.6 mph - N/A   Mist
1:35 AM 46.4 °F 44.3 °F 46.4 °F 100% 29.92 in 3.0 mi West 4.6 mph - N/A   Mist
1:55 AM 46.4 °F 44.3 °F 46.4 °F 100% 29.92 in 4.0 mi West 4.6 mph - N/A   Mist
2:15 AM 46.4 °F 42.9 °F 46.4 °F 100% 29.92 in 7.0 mi NW 6.9 mph - N/A   Drizzle
2:35 AM 44.6 °F - 44.6 °F 100% 29.91 in 7.0 mi Calm Calm - N/A Rain Light Rain
2:55 AM 44.6 °F - 44.6 °F 100% 29.90 in 7.0 mi Calm Calm - N/A   Unknown
3:15 AM 44.6 °F 41.4 °F 44.6 °F 100% 29.91 in 4.0 mi West 5.8 mph - N/A   Mist
3:35 AM 44.6 °F 42.2 °F 44.6 °F 100% 29.91 in 5.0 mi West 4.6 mph - 0.01 in   Mist
3:55 AM 44.6 °F 39.7 °F 44.6 °F 100% 29.91 in 7.0 mi West 9.2 mph - 0.01 in   Unknown
4:15 AM 44.6 °F 39.7 °F 44.6 °F 100% 29.91 in 7.0 mi West 9.2 mph - N/A   Unknown
4:35 AM 44.6 °F 40.7 °F 44.6 °F 100% 29.91 in 7.0 mi West 6.9 mph - N/A   Unknown
4:55 AM 44.6 °F 39.7 °F 44.6 °F 100% 29.92 in 7.0 mi West 9.2 mph - N/A   Unknown
5:15 AM 44.6 °F 39.7 °F 44.6 °F 100% 29.92 in 5.0 mi West 9.2 mph - N/A   Mist
5:35 AM 44.6 °F 39.7 °F 44.6 °F 100% 29.92 in 7.0 mi West 9.2 mph - N/A   Unknown
6:15 AM 42.8 °F 37.0 °F 42.8 °F 100% 29.92 in 7.0 mi WNW 10.4 mph - N/A   Unknown
6:35 AM 42.8 °F 38.6 °F 42.8 °F 100% 29.93 in 5.0 mi WNW 6.9 mph - N/A   Mist
7:15 AM 42.8 °F 38.6 °F 42.8 °F 100% 29.94 in 7.0 mi WNW 6.9 mph - N/A   Unknown
7:55 AM 44.6 °F 39.7 °F 44.6 °F 100% 29.96 in 10.0 mi WNW 9.2 mph - N/A   Unknown
8:15 AM 44.6 °F 39.2 °F 44.6 °F 100% 29.96 in 10.0 mi WNW 10.4 mph - N/A   Unknown
8:35 AM 46.4 °F 41.9 °F 44.6 °F 93% 29.96 in 10.0 mi NW 9.2 mph - N/A   Unknown
8:55 AM 46.4 °F 41.9 °F 44.6 °F 93% 29.97 in 10.0 mi WNW 9.2 mph - N/A   Unknown
9:15 AM 46.4 °F 42.9 °F 44.6 °F 93% 29.97 in 10.0 mi NW 6.9 mph - N/A   Unknown
9:55 AM 50.0 °F - 39.2 °F 66% 29.96 in 10.0 mi NNW 10.4 mph 16.1 mph N/A   Unknown
10:15 AM 50.0 °F - 37.4 °F 62% 29.96 in 10.0 mi NW 12.7 mph 18.4 mph N/A   Unknown
10:35 AM 50.0 °F - 39.2 °F 66% 29.95 in 10.0 mi NNW 9.2 mph - N/A   Unknown
10:55 AM 50.0 °F - 37.4 °F 62% 29.96 in 10.0 mi NNW 12.7 mph 19.6 mph N/A   Unknown
11:15 AM 50.0 °F - 37.4 °F 62% 29.95 in 10.0 mi NW 10.4 mph - N/A   Unknown
11:35 AM 50.0 °F - 39.2 °F 66% 29.94 in 10.0 mi NW 10.4 mph 17.3 mph N/A   Unknown
11:55 AM 50.0 °F - 39.2 °F 66% 29.94 in 10.0 mi NW 9.2 mph - N/A   Unknown
12:15 PM 50.0 °F - 39.2 °F 66% 29.94 in 10.0 mi NNW 11.5 mph 17.3 mph N/A   Unknown
12:55 PM 51.8 °F - 39.2 °F 62% 29.92 in 10.0 mi NNW 6.9 mph - N/A   Unknown
1:15 PM 51.8 °F - 37.4 °F 58% 29.92 in 10.0 mi NW 4.6 mph - N/A   Unknown
1:35 PM 50.0 °F - 37.4 °F 62% 29.92 in 10.0 mi NW 8.1 mph - N/A   Unknown
1:55 PM 50.0 °F - 39.2 °F 66% 29.92 in 10.0 mi NW 8.1 mph - N/A   Unknown
2:15 PM 51.8 °F - 41.0 °F 67% 29.92 in 10.0 mi North 9.2 mph - N/A   Unknown
2:35 PM 46.4 °F 44.3 °F 42.8 °F 87% 29.94 in 10.0 mi NNE 4.6 mph - N/A Rain Light Rain
2:55 PM 46.4 °F 44.3 °F 42.8 °F 87% 29.94 in 10.0 mi North 4.6 mph - N/A   Unknown
3:15 PM 44.6 °F 38.1 °F 41.0 °F 87% 29.97 in 5.0 mi WNW 13.8 mph 20.7 mph 0.04 in Rain Light Rain
3:35 PM 44.6 °F 38.8 °F 44.6 °F 100% 29.97 in 7.0 mi WNW 11.5 mph 17.3 mph 0.04 in Rain Light Rain
3:55 PM 44.6 °F 41.4 °F 44.6 °F 100% 29.98 in 10.0 mi NW 5.8 mph - 0.05 in   Unknown
4:15 PM 42.8 °F 39.3 °F 42.8 °F 100% 29.98 in 10.0 mi NW 5.8 mph - N/A   Unknown
4:35 PM 42.8 °F 40.1 °F 42.8 °F 100% 29.99 in 10.0 mi NNW 4.6 mph - N/A   Unknown
4:55 PM 42.8 °F 37.5 °F 42.8 °F 100% 30.00 in 10.0 mi WNW 9.2 mph - N/A   Unknown
5:15 PM 42.8 °F 38.0 °F 42.8 °F 100% 30.01 in 10.0 mi NW 8.1 mph - N/A   Unknown
5:35 PM 42.8 °F 37.5 °F 42.8 °F 100% 30.01 in 10.0 mi NW 9.2 mph - N/A   Unknown
5:55 PM 42.8 °F 37.5 °F 42.8 °F 100% 30.03 in 10.0 mi NW 9.2 mph - N/A   Unknown
6:15 PM 42.8 °F 38.6 °F 42.8 °F 100% 30.03 in 10.0 mi NNW 6.9 mph - N/A   Unknown
6:35 PM 42.8 °F 38.6 °F 42.8 °F 100% 30.04 in 10.0 mi NNW 6.9 mph - N/A   Unknown
6:55 PM 42.8 °F 38.0 °F 42.8 °F 100% 30.06 in 10.0 mi NNW 8.1 mph - N/A   Unknown
7:15 PM 42.8 °F 38.6 °F 42.8 °F 100% 30.06 in 10.0 mi NNW 6.9 mph - N/A   Unknown
7:35 PM 42.8 °F 38.0 °F 42.8 °F 100% 30.07 in 10.0 mi NNW 8.1 mph - N/A   Unknown
7:55 PM 42.8 °F 38.6 °F 42.8 °F 100% 30.07 in 10.0 mi NNW 6.9 mph - N/A   Unknown
8:15 PM 42.8 °F 39.3 °F 42.8 °F 100% 30.08 in 10.0 mi NNW 5.8 mph - N/A   Unknown
8:55 PM 42.8 °F 39.3 °F 42.8 °F 100% 30.09 in 10.0 mi NNW 5.8 mph - N/A   Unknown
9:15 PM 42.8 °F 40.1 °F 42.8 °F 100% 30.09 in 10.0 mi North 4.6 mph - N/A   Unknown
9:35 PM 41.0 °F 39.0 °F 41.0 °F 100% 30.09 in 10.0 mi NNW 3.5 mph - N/A   Unknown
9:55 PM 41.0 °F 39.0 °F 41.0 °F 100% 30.09 in 10.0 mi NNW 3.5 mph - N/A   Unknown
10:15 PM 41.0 °F 38.0 °F 41.0 °F 100% 30.09 in 7.0 mi North 4.6 mph - N/A   Unknown
10:35 PM 41.0 °F 37.1 °F 41.0 °F 100% 30.09 in 10.0 mi North 5.8 mph - N/A   Unknown
10:55 PM 41.0 °F 39.0 °F 41.0 °F 100% 30.09 in 7.0 mi NNW 3.5 mph - N/A   Unknown
11:15 PM 41.0 °F 38.0 °F 41.0 °F 100% 30.09 in 7.0 mi NNW 4.6 mph - N/A   Unknown
11:55 PM 37.4 °F 34.9 °F 37.4 °F 100% 30.10 in 5.0 mi NW 3.5 mph - N/A   Mist